User: anonymous   Login
Location: Fort Wayne
(41.1310°N, 85.1290°W)
Time: 23:11:58
(UTC-04:00)
Language:

OAO 2 Rocket - Orbit

View from above orbital plane
View from above orbital plane
View from above satellite
View from above satellite

Ground track
Ground track

The orbit data is extracted from the following two-line orbital elements,

1 03598U 68110B   16273.11350963  .00000188  00000-0  47589-4 0  9992
2 03598  34.9952  11.3990 0050112 270.3694  89.1257 14.54252426528442
Epoch (UTC): 29 September 2016 02:43:27
Eccentricity: 0.0050112
inclination: 34.9952°
perigee height: 676 km
apogee height: 747 km
right ascension of ascending node: 11.3990°
argument of perigee: 270.3694°
revolutions per day: 14.54252426
mean anomaly at epoch: 89.1257°
orbit number at epoch: 52844

The dashed part of the orbit path shows where the satellite is in the earth's shadow,  

DLR